Total_Precipitation_Accumulation
1.70 1.77 1.82 1.90 2.06 2.13 2.11 2.15 2.16 2.18 2.31 2.43 2.52 2.60 2.61 2.64 2.79 2.89 2.72 2.89 2.87 2.96 2.88 2.85 2.81 3.03 3.09 2.93 3.10 3.26 3.52 3.78 3.48 2.94 3.02 3.04 2.99 2.77 2.71 2.60 2.46 2.39 2.18
1.74 1.85 1.99 2.06 2.15 2.20 2.07 2.13 2.33 2.37 2.43 2.53 2.64 2.72 2.61 2.71 2.86 2.78 2.75 2.82 2.86 2.81 2.91 3.13 3.05 3.24 3.27 3.21 3.40 3.41 3.51 3.80 3.70 3.32 3.17 3.20 3.09 2.95 2.86 2.60 2.21 2.09 2.07
2.09 2.10 2.13 2.07 2.14 2.26 2.29 2.30 2.41 2.50 2.55 2.54 2.52 2.58 2.74 2.95 2.96 2.77 2.76 2.74 2.63 2.52 2.69 2.99 3.29 3.77 3.63 3.46 3.35 3.26 3.29 3.37 3.63 3.34 3.06 3.27 3.09 2.97 2.94 2.56 2.26 2.20 1.85
1.93 1.99 2.13 2.20 2.31 2.46 2.54 2.58 2.58 2.55 2.56 2.62 2.69 2.69 2.76 2.79 2.79 2.82 2.89 2.85 2.76 2.60 2.59 2.71 2.89 3.20 3.38 3.51 3.29 3.19 3.28 3.37 3.50 3.39 3.27 3.48 3.53 3.36 3.16 2.76 2.56 2.41 2.11
2.19 2.41 2.59 2.65 2.67 2.78 2.81 2.77 2.82 2.77 2.67 2.86 2.91 2.88 2.84 2.76 2.57 2.83 3.04 2.91 2.97 2.83 2.72 2.63 2.46 2.59 2.79 2.99 2.83 3.14 3.34 3.30 3.35 3.39 3.48 3.84 3.82 3.63 3.10 2.83 2.72 2.58 2.29
2.52 2.88 3.02 3.07 3.09 3.11 3.12 3.10 3.11 3.06 3.18 3.21 3.05 2.98 2.90 2.62 2.83 2.94 2.97 2.97 3.07 3.01 2.91 2.83 2.61 2.42 2.39 2.54 2.61 2.82 3.07 3.09 3.15 3.31 3.38 3.55 3.59 3.55 3.35 3.07 2.81 2.64 2.33
2.58 2.81 2.91 3.00 3.09 3.24 3.24 3.21 3.17 3.17 3.21 3.22 3.28 3.24 3.09 3.18 3.24 2.92 2.89 2.87 2.91 2.89 3.10 3.21 2.74 2.29 2.53 2.47 2.55 2.55 2.43 2.54 2.75 2.96 3.11 3.12 3.45 3.59 3.66 3.22 3.02 2.81 2.42
2.80 2.96 3.05 3.03 3.06 3.12 3.10 2.98 2.98 3.12 3.14 3.09 3.05 3.00 2.95 2.93 3.07 2.82 2.79 2.65 2.62 2.63 2.69 2.75 2.74 2.54 2.47 2.53 2.49 2.31 2.07 2.05 2.21 2.26 2.34 2.61 2.98 3.50 3.84 3.58 3.46 3.24 2.84
2.85 2.94 3.08 3.17 3.27 3.18 3.09 3.08 3.10 3.16 3.07 3.02 2.99 3.02 2.90 2.85 2.94 2.73 2.72 2.49 2.41 2.32 2.30 2.30 2.32 2.16 2.26 2.33 2.29 2.17 2.04 1.92 1.95 2.02 1.97 2.09 2.42 2.82 3.35 3.59 3.34 3.01 2.65
2.79 2.91 3.04 3.15 3.33 3.44 3.39 3.41 3.36 3.29 3.22 3.21 3.16 3.16 3.05 2.94 3.07 2.81 2.70 2.45 2.38 2.35 2.43 2.38 2.33 2.15 2.16 2.10 2.01 2.02 1.84 1.73 1.86 1.83 1.75 1.76 1.89 2.24 2.77 2.95 3.06 2.91 2.57
2.50 2.56 2.74 2.99 3.23 3.39 3.49 3.50 3.51 3.44 3.34 3.14 2.98 2.95 2.87 2.85 3.00 2.81 2.65 2.39 2.33 2.42 2.49 2.52 2.45 2.35 2.04 1.93 1.83 1.74 1.72 1.90 1.99 1.98 1.91 1.90 2.06 2.24 2.41 2.69 2.94 3.00 2.77
2.48 2.62 2.77 2.99 3.09 3.15 3.28 3.33 3.49 3.46 3.36 3.25 3.02 2.82 2.70 2.54 2.49 2.50 2.34 2.23 2.26 2.32 2.40 2.51 2.54 2.45 2.16 2.03 1.88 1.73 1.81 1.83 1.82 1.94 1.92 1.87 1.91 2.03 2.23 2.53 2.82 2.90 2.79
2.72 2.82 2.91 3.00 3.11 3.20 3.27 3.28 3.30 3.29 3.14 3.03 2.87 2.75 2.65 2.55 2.47 2.30 2.03 1.99 2.06 2.04 2.15 2.53 2.61 2.46 2.22 1.96 1.87 1.88 1.82 1.70 1.73 1.75 1.66 1.61 1.69 1.85 2.06 2.36 2.70 2.92 2.85
2.75 2.69 2.70 2.72 2.79 2.89 3.01 3.05 3.01 2.94 2.89 2.79 2.68 2.61 2.52 2.45 2.36 2.28 2.13 2.00 2.01 1.97 1.98 2.19 2.27 2.20 1.99 1.83 1.75 1.68 1.61 1.63 1.63 1.60 1.60 1.67 1.79 1.85 1.91 2.07 2.47 2.82 2.93
2.74 2.76 2.79 2.80 2.85 2.92 2.99 3.07 2.97 2.81 2.77 2.67 2.54 2.58 2.57 2.40 2.34 2.38 2.21 2.02 1.99 2.09 2.11 2.05 2.08 2.15 2.11 2.02 2.00 1.94 1.90 1.84 1.72 1.65 1.73 1.77 1.89 2.02 2.08 2.21 2.47 2.69 2.64
2.78 2.70 2.74 2.82 2.92 3.01 3.06 3.09 3.14 2.85 2.76 2.61 2.52 2.47 2.39 2.26 2.17 2.04 1.97 1.93 1.88 1.90 1.83 1.81 1.95 2.12 2.23 2.23 2.26 2.23 2.16 2.07 1.97 1.97 2.02 2.00 2.00 2.08 2.16 2.20 2.38 2.57 2.57
2.82 2.81 2.82 2.79 2.84 2.91 2.88 2.80 2.82 2.75 2.57 2.49 2.39 2.28 2.17 2.05 1.92 1.83 1.80 1.82 1.77 1.70 1.58 1.68 1.84 1.97 2.14 2.29 2.34 2.29 2.19 2.21 2.28 2.27 2.25 2.22 2.21 2.26 2.34 2.32 2.32 2.46 2.54
2.79 2.86 2.89 2.87 2.78 2.77 2.70 2.63 2.57 2.54 2.41 2.25 2.17 2.13 2.12 2.07 2.01 1.99 1.97 1.93 1.79 1.72 1.63 1.82 1.99 2.11 2.23 2.42 2.48 2.43 2.40 2.36 2.39 2.36 2.38 2.37 2.36 2.36 2.38 2.36 2.32 2.30 2.42
2.55 2.50 2.46 2.48 2.46 2.46 2.39 2.30 2.22 2.16 2.20 2.22 2.12 2.03 2.10 2.04 2.07 2.16 2.01 1.83 1.83 1.88 1.91 1.98 2.05 2.14 2.28 2.44 2.58 2.64 2.65 2.59 2.55 2.51 2.45 2.47 2.51 2.52 2.41 2.35 2.42 2.47 2.43
2.08 2.21 2.11 2.00 2.01 2.05 2.06 2.07 2.03 2.03 2.11 2.23 2.19 1.98 1.95 1.88 1.93 2.06 1.89 1.87 1.97 1.96 1.93 2.01 2.05 2.07 2.23 2.36 2.44 2.50 2.53 2.50 2.50 2.55 2.50 2.47 2.50 2.53 2.46 2.47 2.57 2.57 2.45
1.68 1.71 1.76 1.61 1.65 1.80 1.89 1.93 1.95 2.03 2.09 2.10 2.01 1.86 1.79 1.67 1.88 2.00 1.91 1.87 1.86 1.86 1.86 1.87 1.92 1.97 2.08 2.22 2.28 2.35 2.41 2.41 2.38 2.41 2.50 2.51 2.44 2.46 2.45 2.49 2.53 2.59 2.52
1.31 1.30 1.33 1.34 1.46 1.58 1.63 1.69 1.79 1.87 1.92 1.92 1.81 1.66 1.65 1.60 1.79 1.88 1.83 1.80 1.77 1.77 1.79 1.84 1.84 1.84 1.93 2.07 2.13 2.21 2.32 2.29 2.22 2.24 2.37 2.51 2.45 2.39 2.47 2.56 2.60 2.63 2.60
1.19 1.25 1.30 1.32 1.41 1.46 1.46 1.50 1.67 1.77 1.80 1.80 1.71 1.63 1.59 1.59 1.66 1.74 1.77 1.72 1.68 1.66 1.64 1.70 1.76 1.77 1.84 1.97 2.01 2.08 2.22 2.20 2.16 2.19 2.29 2.36 2.36 2.34 2.40 2.44 2.49 2.58 2.57
1.19 1.22 1.26 1.22 1.23 1.28 1.34 1.40 1.46 1.51 1.55 1.58 1.57 1.51 1.49 1.51 1.55 1.56 1.56 1.54 1.59 1.62 1.63 1.71 1.73 1.79 1.88 1.91 1.87 1.84 1.91 1.97 1.94 1.96 2.04 2.18 2.26 2.31 2.33 2.32 2.32 2.36 2.44
1.15 1.21 1.24 1.33 1.37 1.39 1.40 1.41 1.43 1.39 1.39 1.42 1.45 1.50 1.53 1.54 1.55 1.56 1.57 1.58 1.57 1.61 1.59 1.62 1.67 1.73 1.77 1.69 1.63 1.66 1.80 1.75 1.69 1.71 1.82 2.01 2.11 2.20 2.25 2.23 2.25 2.31 2.40
1.28 1.36 1.44 1.51 1.55 1.57 1.60 1.60 1.54 1.49 1.49 1.45 1.49 1.54 1.63 1.70 1.72 1.73 1.72 1.70 1.69 1.69 1.66 1.66 1.66 1.59 1.59 1.55 1.49 1.54 1.53 1.41 1.41 1.54 1.61 1.77 1.95 2.00 2.12 2.24 2.24 2.29 2.32